Location: Unspecified
(49.2170°N, 0.0000°E)
Time: 15:43:39
(UTC+00:00)

Tiros 1 despin weight - Pass Details

Date: 24 January 2021
Orbit: 593 x 642 km, 48.2° (Epoch: 07 March)

Event Time Altitude Azimuth Distance (km) Brightness Sun altitude
Rises 20:16:52 0° 280° (W) 2,846 ? -34.5°
Reaches altitude 10° 20:19:40 10° 263° (W) 1,934 ? -34.9°
Enters shadow 20:20:52 15° 250° (WSW) 1,640 ? -35.1°
Maximum altitude 20:22:49 19° 218° (SW) 1,424 - -35.4°
Drops below altitude 10° 20:25:56 10° 172° (S) 1,917 - -35.9°
Sets 20:28:43 0° 155° (SSE) 2,814 - -36.4°
